Albany, NY

5:40 PM EDT on July 24, 2017 (GMT -0400)
Albany International

Weather History for KALB - October, 2013

Change the Weather History Date:

Monday, October 7, 2013

  Actual Average Record
Temperature  
Mean Temperature 65 °F 53 °F  
Max Temperature 75 °F 63 °F 89 °F (1963)
Min Temperature 54 °F 43 °F 27 °F (1986)
Degree Days  
Heating Degree Days 0 12  
Month to date heating degree days 28 78  
Since 1 July heating degree days 200 245  
Cooling Degree Days 0 0  
Month to date cooling degree days 0 0  
Year to date cooling degree days 763 594  
Growing Degree Days 16 (Base 50)    
Moisture  
Dew Point 59 °F    
Average Humidity 78    
Maximum Humidity 90    
Minimum Humidity 66    
Precipitation  
Precipitation 0.94 in 0.11 in 2.62 in (1972)
Month to date precipitation 1.84 0.83  
Year to date precipitation 38.16 30.28  
Snow  
Snow 0.00 in 0.10 in 0.00 in ()
Month to date snowfall 0.0 0.1  
Since 1 July snowfall 0.0 0.1  
Since 1 September snowfall 0.0 0.1  
Snow Depth 0.00 in    
Sea Level Pressure  
Sea Level Pressure 29.85 in    
Wind  
Wind Speed 9 mph (South)    
Max Wind Speed 30 mph    
Max Gust Speed 41 mph    
Visibility 8 miles    
Events Rain , Thunderstorm    
T = Trace of Precipitation, MM = Missing Value Source: NWS Daily Summary

Daily Weather History Graph

Daily Weather History Graph

Search for Another Location

Airport or City:

Trip Planner

Search our weather history database for the weather conditions in past years. The results will help you decide how hot, cold, wet, or windy it might be!

Date:

Astronomy

Oct. 07, 2013 Rise Set
Actual Time 6:59 AM EDT 6:25 PM EDT
Civil Twilight 6:31 AM EDT 6:53 PM EDT
Nautical Twilight 5:58 AM EDT 7:26 PM EDT
Astronomical Twilight 5:25 AM EDT 7:59 PM EDT
Moon 9:50 AM EDT (10/7) 8:03 PM EDT (10/7)
Length of Visible Light 12h 22m
Length of Day
11h 26m
Waxing Crescent, 8% of the Moon is Illuminated
Oct 7
Waxing Crescent
Oct 11
First Quarter
Oct 18
Full
Oct 26
Last Quarter
Nov 3
New

Hourly Weather History & Observations

Time (EDT) Temp. Dew Point Humidity Pressure Visibility Wind Dir Wind Speed Gust Speed Precip Events Conditions
12:51 AM 61.0 °F 55.0 °F 81% 30.01 in 10.0 mi SSE 12.7 mph 19.6 mph N/A   Overcast
1:51 AM 61.0 °F 57.0 °F 87% 30.00 in 10.0 mi South 11.5 mph - N/A   Overcast
2:16 AM 60.8 °F 57.2 °F 88% 29.99 in 10.0 mi South 9.2 mph - N/A   Overcast
2:46 AM 60.8 °F 57.2 °F 88% 29.98 in 10.0 mi South 6.9 mph - N/A   Overcast
2:51 AM 61.0 °F 57.0 °F 87% 29.98 in 10.0 mi South 9.2 mph - N/A   Overcast
2:58 AM 60.8 °F 57.2 °F 88% 29.97 in 9.0 mi South 10.4 mph - N/A   Overcast
3:51 AM 62.1 °F 57.9 °F 86% 29.96 in 10.0 mi SSE 6.9 mph - N/A   Overcast
4:39 AM 62.6 °F 59.0 °F 88% 29.94 in 10.0 mi SSE 8.1 mph - N/A   Overcast
4:51 AM 63.0 °F 59.0 °F 87% 29.94 in 10.0 mi SSE 6.9 mph - N/A   Overcast
5:51 AM 64.0 °F 60.1 °F 87% 29.91 in 10.0 mi SE 6.9 mph - N/A   Overcast
6:12 AM 64.4 °F 60.8 °F 88% 29.91 in 10.0 mi SSE 9.2 mph - N/A   Mostly Cloudy
6:51 AM 66.0 °F 60.1 °F 81% 29.91 in 10.0 mi SSE 8.1 mph 16.1 mph N/A   Mostly Cloudy
7:09 AM 66.2 °F 60.8 °F 83% 29.91 in 10.0 mi SSE 10.4 mph - N/A   Mostly Cloudy
7:51 AM 68.0 °F 62.1 °F 81% 29.90 in 10.0 mi SE 10.4 mph 19.6 mph N/A   Mostly Cloudy
8:51 AM 69.1 °F 63.0 °F 81% 29.89 in 10.0 mi SE 9.2 mph 18.4 mph N/A   Mostly Cloudy
9:18 AM 69.8 °F 62.6 °F 78% 29.87 in 10.0 mi SE 9.2 mph 20.7 mph N/A   Mostly Cloudy
9:51 AM 71.1 °F 63.0 °F 75% 29.86 in 10.0 mi SSE 11.5 mph 20.7 mph N/A   Mostly Cloudy
10:51 AM 73.0 °F 63.0 °F 71% 29.82 in 10.0 mi South 13.8 mph 20.7 mph N/A   Overcast
11:51 AM 73.9 °F 64.0 °F 71% 29.79 in 10.0 mi South 15.0 mph 28.8 mph 0.00 in Rain Light Rain
12:51 PM 75.0 °F 63.0 °F 66% 29.73 in 10.0 mi South 17.3 mph 25.3 mph 0.00 in Rain Light Rain
1:24 PM 73.4 °F 64.4 °F 73% 29.70 in 2.0 mi South 15.0 mph 23.0 mph 0.00 in Rain Light Rain
1:51 PM 70.0 °F 66.0 °F 87% 29.68 in 2.0 mi South 16.1 mph 26.5 mph 0.04 in Rain Light Rain
2:21 PM 69.8 °F 66.2 °F 88% 29.66 in 6.0 mi SSE 18.4 mph 27.6 mph 0.01 in Rain Light Rain
2:51 PM 72.0 °F 66.0 °F 81% 29.65 in 10.0 mi SSE 18.4 mph 28.8 mph 0.01 in   Overcast
2:59 PM 71.6 °F 66.2 °F 83% 29.65 in 1.0 mi South 17.3 mph 32.2 mph 0.00 in Rain Rain
3:11 PM 66.2 °F 64.4 °F 94% 29.71 in 0.8 mi SW 26.5 mph 41.4 mph 0.15 in Rain Heavy Rain
3:22 PM 64.4 °F 62.6 °F 94% 29.72 in 1.0 mi SSW 21.9 mph 34.5 mph 0.66 in Rain Heavy Rain
3:28 PM 64.4 °F 62.6 °F 94% 29.70 in 1.0 mi SSW 12.7 mph 29.9 mph 0.73 in Rain , Thunderstorm Heavy Thunderstorms and Rain
3:51 PM 64.9 °F 62.1 °F 90% 29.70 in 1.0 mi South 5.8 mph - 0.83 in Rain , Thunderstorm Thunderstorms and Rain
3:57 PM 64.4 °F 60.8 °F 88% 29.71 in 3.0 mi WNW 15.0 mph 20.7 mph 0.01 in Rain , Thunderstorm Thunderstorms and Rain
4:02 PM 62.6 °F 57.2 °F 82% 29.72 in 3.0 mi WNW 16.1 mph 21.9 mph 0.02 in Rain Light Rain
4:51 PM 62.1 °F 57.0 °F 84% 29.77 in 8.0 mi WNW 8.1 mph - 0.04 in Rain Light Rain
5:51 PM 60.1 °F 51.1 °F 72% 29.82 in 10.0 mi West 13.8 mph 28.8 mph 0.00 in Rain Light Rain
6:51 PM 60.1 °F 50.0 °F 69% 29.86 in 10.0 mi West 8.1 mph - 0.02 in   Mostly Cloudy
7:51 PM 57.9 °F 52.0 °F 81% 29.89 in 10.0 mi Calm Calm - N/A   Mostly Cloudy
8:51 PM 57.0 °F 51.1 °F 81% 29.90 in 10.0 mi SSE 4.6 mph - N/A   Mostly Cloudy
9:51 PM 57.0 °F 50.0 °F 77% 29.92 in 10.0 mi WSW 4.6 mph - N/A   Mostly Cloudy
10:51 PM 57.0 °F 46.9 °F 69% 29.94 in 10.0 mi WSW 6.9 mph - N/A   Mostly Cloudy
11:51 PM 55.9 °F 45.0 °F 67% 29.97 in 10.0 mi WSW 6.9 mph - N/A   Mostly Cloudy